Вернуться в каталог

SL-12 DEB

LostHEO
NORAD 41562·DEBRIS·🇷🇺 Russia

Запущен Dec 25, 2008 с Baikonur Cosmodrome

Loading…

Ближайшие Пролёты (ближайшие 24 часа)

TLE

УстаревшееSource: Space-Track

Эпоха: Sep 14, 2025, 16:00 UTC

1 41562U 08067L   25257.66685780  .00000153  00000-0  21106-2 0  9997
2 41562  65.3886 299.2709 5582871 255.6492  39.1156  4.21162681145379

Отслеживайте SL-12 DEB в реальном времени с AllMySat

Download on the App Store